Regional Weather Roundup
Issued by NWS

Home | Current Version | Previous Version | Graphics & Text | Print | Product List | Glossary On
Versions: 1 2 3 4 5 6 7 8 9 10 11 12 13 14 15 16 17 18 19 20 21 22 23 24 25 26 27 28 29 30 31 32 33 34 35 36 37 38 39 40 41 42 43 44 45 46 47 48 49 50
000
ASUS43 KLOT 060600
RWRIL

ILLINOIS REGIONAL WEATHER ROUNDUP
NATIONAL WEATHER SERVICE CHICAGO/ROMEOVILLE IL
1200 AM CST FRI MAR 06 2015

NOTE: "FAIR" INDICATES FEW OR NO CLOUDS BELOW 12,000 FEET WITH NO
SIGNIFICANT WEATHER AND/OR OBSTRUCTIONS TO VISIBILITY.

* THESE STATIONS ARE NOT UNDER NWS QUALITY CONTROL. THEY ALSO MAY NOT
  REPORT WEATHER SUCH AS PRECIPITATION OR FOG.

ILZ001-002-007-009-015-016-024-060700-
NORTHWEST ILLINOIS

CITY           SKY/WX    TMP DP  RH WIND       PRES   REMARKS
MOLINE         MOCLDY     1  -5  75 CALM      30.52F
6HR MIN TEMP:   1; 6HR MAX TEMP:  12;

STERLING*      MOCLDY     1  -2  85 CALM      30.52S
$$

ILZ003-004-008-010-011-017-018-060700-
NORTH CENTRAL ILLINOIS

CITY           SKY/WX    TMP DP  RH WIND       PRES   REMARKS
ROCKFORD       MOCLDY     0  -8  69 S5        30.52F WCI -10
6HR MIN TEMP:  -2; 6HR MAX TEMP:  10;

FREEPORT*      MOCLDY    -1  -8  72 SW3       30.51S
DE KALB*       PTCLDY     0  -7  71 SW6       30.51S WCI -11
$$

ILZ005-006-012>014-019>023-060700-
NORTHEAST ILLINOIS

CITY           SKY/WX    TMP DP  RH WIND       PRES   REMARKS
CHICAGO-OHARE  MOCLDY     6  -2  69 SW5       30.52F WCI  -3
6HR MIN TEMP:   6; 6HR MAX TEMP:  13;

CHICAGO-MIDWAY PTCLDY     8  -2  63 SW6       30.54F WCI  -2
6HR MIN TEMP:   8; 6HR MAX TEMP:  16;

AURORA         PTCLDY     2  -6  69 SW6       30.53F WCI  -9
6HR MIN TEMP:   1; 6HR MAX TEMP:  10;

WAUKEGAN       MOCLDY     3  -4  72 SW5       30.49F WCI  -6
6HR MIN TEMP:  -4; 6HR MAX TEMP:  11;

DUPAGE AIRPORT PTCLDY     2  -6  69 SW7       30.51F WCI -11
6HR MIN TEMP:   1; 6HR MAX TEMP:  10;

WHEELING       MOCLDY     7  -2  66 SW6       30.53F WCI  -3
6HR MIN TEMP:   7; 6HR MAX TEMP:  14;

NORTHERLY ISL    N/A     11   2  67 W6          N/A  WCI   2
$$

LMZ740>746-060700-
SOUTHERN LAKE MICHIGAN

STATION/POSITION SKY/WX   TEMP    WIND        PRES    VSBY  WAVE
                          AIR SEA DIR/SP/G                  HT/PER
                          (F)     (DEG/KT/KT) (MB)    (MI)  (FT/S)
WAUKEGAN HARBOR             8                   N/A
HARRISON CRIB              12     250/ 13/ 17   N/A
BURNHAM HARBOR             11     250/  6/ 12   N/A
CALUMET HARBOR             10     230/  5/ 10 1032.8F
MICHIGAN CITY               9     190/ 10/ 10   N/A
$$

ILZ025>027-034>036-040-047-049-050-058-095>099-060700-
WEST-CENTRAL ILLINOIS

CITY           SKY/WX    TMP DP  RH WIND       PRES   REMARKS
QUINCY         PTCLDY     9  -1  64 SE7       30.52F WCI  -2
PITTSFIELD*    PTCLDY     9   3  78 CALM      30.56S
$$

ILZ028>032-037-038-041>044-048-051>054-059>061-060700-
CENTRAL ILLINOIS

CITY           SKY/WX    TMP DP  RH WIND       PRES   REMARKS
DECATUR        MOCLDY    -6 -10  83 CALM      30.56F
PEORIA         PTCLDY     4  -3  73 CALM      30.55F
6HR MIN TEMP:   3; 6HR MAX TEMP:  13;

LINCOLN*       PTCLDY     2  -2  81 CALM      30.60S
SPRINGFIELD    PTCLDY     2  -4  76 CALM      30.57F
6HR MIN TEMP:   0; 6HR MAX TEMP:  13;

TAYLORVILLE    NOT AVBL
$$

ILZ033-039-045-046-055>057-062-063-060700-
EAST-CENTRAL ILLINOIS

CITY           SKY/WX    TMP DP  RH WIND       PRES   REMARKS
CHAMPAIGN      MOCLDY    -4  -7  87 CALM      30.55F FOG
MATTOON        PTCLDY     2  -3  80 CALM      30.56F
$$

ILZ079-100>102-060700-
SOUTHWEST ILLINOIS

CITY           SKY/WX    TMP DP  RH WIND       PRES   REMARKS
BELLEVILLE     PTCLDY    13   8  81 SE1       30.59S
CAHOKIA*       CLEAR     15   7  70 SE5       30.60F WCI   8
$$

ILZ064>066-069>071-074>076-080>082-084>086-088>090-092>094-060700-
SOUTH-CENTRAL ILLINOIS

CITY           SKY/WX    TMP DP  RH WIND       PRES   REMARKS
CARBONDALE     PTCLDY     5   1  83 CALM      30.61F
6HR MIN TEMP:   3; 6HR MAX TEMP:  18;

MT. VERNON     PTCLDY     3  -2  78 CALM      30.59F
$$

ILZ067-068-072-073-078-083-087-091-060700-
SOUTHEAST ILLINOIS

CITY           SKY/WX    TMP DP  RH WIND       PRES   REMARKS
LAWRENCEVILLE  PTCLDY     5   0  79 N3        30.61F
$$

ABBREVIATIONS USED IN REMARKS
   TC - TEMPERATURE IN CELSIUS
  WCI - WIND CHILL INDEX
   HX - HEAT INDEX
  VSB - VISIBILITY
$$



USA.gov is the U.S. government's official web portal to all federal, state and local government web resources and services.